Home   Weather   Oranjestad   Past weeks

Flag for Aruba Past Weather in Oranjestad, Aruba — Yesterday and Last 2 Weeks

Now
84 °F

Passing clouds.


Feels Like: 96 °F
Forecast: 84 / 91 °F
Wind: 18 mph from East

Location: Queen Beatrix Airport - Aruba

Current Time: Sep 28, 2016 at 1:24:30 AM

Latest Report: Sep 28, 2016 at 1:00 AM


Visibility: N/A

Pressure: 29.86 "Hg

Humidity: 84%

Dew Point: 79 °F

Location of OranjestadLocation

Past Weather in Oranjestad — Graph

°F

Oranjestad Temperature Yesterday

Maximum temperature yesterday: 93 °F (at 12:00 PM)
Minimum temperature yesterday: 82 °F (at 4:00 AM)
Average temperature yesterday: 87 °F

High & Low Weather Summary for the Past Weeks

 TemperatureHumidityPressure
High93 °F (Sep 17, 1:00 PM)94% (Sep 14, 7:00 AM)29.95 "Hg (Sep 14, 7:00 AM)
Low81 °F (Sep 14, 6:00 AM)63% (Sep 17, 11:00 AM)29.74 "Hg (Sep 18, 5:00 PM)
Average87 °F78%29.85 "Hg
* Reported Sep 13 12:00 AM — Sep 28 12:00 AM, Oranjestad, Weather by CustomWeather, © 2016

Note: Actual official high and low records may vary slightly from our data, if they occured in-between our weather recording intervals... More about our weather records

Advertising

Oranjestad Weather History for the Previous 24 Hours

Scroll right to see more
 ConditionsComfort  
Time TempWeatherWind HumidityBarometerVisibility
12:00 AM
Wed, Sep 28
84 °FPassing clouds.18 mph84%29.86 "HgN/A
11:00 PM
Tue, Sep 27
84 °FPassing clouds.18 mph84%29.86 "HgN/A
10:00 PM84 °FPassing clouds.17 mph84%29.86 "HgN/A
9:00 PM84 °FPassing clouds.17 mph84%29.83 "HgN/A
8:00 PM86 °FPassing clouds.21 mph79%29.80 "HgN/A
7:00 PM86 °FPassing clouds.20 mph79%29.77 "HgN/A
6:00 PM86 °FPassing clouds.22 mph84%29.77 "HgN/A
5:00 PM90 °FPassing clouds.21 mph75%29.77 "HgN/A
4:00 PM90 °FPassing clouds.22 mph75%29.77 "HgN/A
3:00 PM91 °FPassing clouds.21 mph71%29.80 "HgN/A
1:00 PM91 °FScattered clouds.18 mph71%29.86 "HgN/A
12:00 PM93 °FScattered clouds.21 mph67%29.86 "HgN/A
11:00 AM91 °FPassing clouds.20 mph71%29.89 "HgN/A
10:00 AM90 °FPassing clouds.23 mph71%29.89 "HgN/A
9:00 AM88 °FPassing clouds.22 mph75%29.89 "HgN/A
8:00 AM86 °FPassing clouds.18 mph79%29.89 "HgN/A
7:00 AM84 °FScattered clouds.15 mph79%29.86 "HgN/A
6:00 AM82 °FPassing clouds.15 mph84%29.86 "HgN/A
5:00 AM84 °FPassing clouds.15 mph79%29.83 "HgN/A
4:00 AM82 °FPassing clouds.15 mph84%29.80 "HgN/A
3:00 AM84 °FPassing clouds.15 mph79%29.80 "HgN/A
2:00 AM84 °FPassing clouds.16 mph84%29.80 "HgN/A
1:00 AM84 °FPassing clouds.17 mph79%29.83 "HgN/A
Weather by CustomWeather, © 2016

See weather overviewHow to use our weather pages